Location: Bronschhofen
(47.4788°N, 9.0353°E)
Time: 19:34:51
(UTC+00:00)

Cosmos 1300 - Pass Details

Date: 20 May 2022
Orbit: 506 x 508 km, 82.5° (Epoch: 06 July)

Event Time Altitude Azimuth Distance (km) Brightness Sun altitude
Rises 01:05:51 0° 351° (N) 2,627 7.2 -18.5°
Reaches altitude 10° 01:07:59 10° 352° (N) 1,736 6.2 -18.4°
Maximum altitude 01:11:48 85° 81° (E) 516 2.6 -18.1°
Enters shadow 01:13:11 38° 167° (SSE) 791 3.2 -18.0°
